This demonstration page uses our WeatherBlox Daily Observations layout. Learn more.

Left ArrowRight Arrow

38.83388, -104.82136

Hourly Observations for April 7, 2017

Temp ( °F °C ) Dew Point ( °F °C ) Humidity (%) Winds ( mph kmh ) Pressure ( in mb ) Visibility ( mi km ) Precip ( " mm )
12:58 am 00:58 Mostly Cloudy 46 7.5 27 -2.9 48 48 NNW 3 6 29.72 1006 10 16 0.00 0.00
1:58 am 01:58 Clear 45 7.1 26 -3.3 48 48 Calm 29.69 1005 10 16 0.00 0.00
2:58 am 02:58 Mostly Cloudy 44 6.4 28 -2.1 55 55 NNW 3 6 29.67 1005 10 16 0.00 0.00
3:58 am 03:58 Mostly Cloudy 44 6.4 28 -2.4 54 54 WNW 6 9 29.66 1005 10 16 0.00 0.00
4:58 am 04:58 Mostly Cloudy 46 7.9 26 -3.5 45 45 S 5 7 29.64 1004 10 16 0.00 0.00
5:58 am 05:58 Mostly Cloudy 55 12.9 14 -9.9 20 20 W 8 13 29.60 1002 10 16 0.00 0.00
6:58 am 06:58 Sunny 55 12.6 17 -8.4 22 22 W 7 11 29.61 1003 10 16 0.00 0.00
7:58 am 07:58 Sunny 58 14.4 18 -7.6 21 21 SSW 7 11 29.60 1002 10 16 0.00 0.00
8:58 am 08:58 Sunny 59 15.2 16 -9.1 18 18 S 12 19 29.60 1002 10 16 0.00 0.00
9:58 am 09:58 Sunny 60 15.7 20 -6.9 21 21 S 16 26 29.57 1001 10 16 0.00 0.00
10:58 am 10:58 Mostly Sunny 63 17.2 21 -6.3 20 20 SSE 14 22 29.55 1001 10 16 0.00 0.00
10:59 am 10:59 Mostly Sunny 63 17 19 -7 19 19 S 20 31 29.62 1003 10 16 0.00 0.00
11:58 am 11:58 Sunny 65 18.4 23 -5.1 20 20 E 5 7 29.54 1000 10 16 0.00 0.00
12:37 pm 12:37 Sunny 66 19 23 -5 19 19 SSE 18 30 29.50 999 10 16 0.00 0.00
12:52 pm 12:52 Sunny 66 19 23 -5 19 19 N 14 22 29.50 999 10 16 0.00 0.00
12:55 pm 12:55 Sunny 66 19 23 -5 19 19 N 17 28 29.50 999 10 16 0.00 0.00
12:58 pm 12:58 Sunny 67 19.2 22 -5.4 18 18 N 20 31 29.51 999 10 16 0.00 0.00
1:35 pm 13:35 Mostly Sunny 66 19 21 -6 18 18 S 21 33 29.50 999 10 16 0.00 0.00
1:58 pm 13:58 Mostly Sunny 66 18.9 22 -5.5 19 19 SSE 12 19 29.49 999 10 16 0.00 0.00
2:58 pm 14:58 Sunny 66 18.8 21 -6.3 18 18 SE 15 24 29.47 998 10 16 0.00 0.00
3:23 pm 15:23 Mostly Sunny 66 19 21 -6 18 18 S 15 24 29.50 999 10 16 0.00 0.00
3:33 pm 15:33 Mostly Sunny 68 20 21 -6 17 17 S 13 20 29.44 997 10 16 0.00 0.00
3:58 pm 15:58 Mostly Sunny 68 19.8 21 -6.3 17 17 SSE 12 19 29.45 997 10 16 0.00 0.00
4:58 pm 16:58 Mostly Sunny 68 19.8 25 -4.1 20 20 Calm 29.41 996 10 16 0.00 0.00
5:58 pm 17:58 Mostly Cloudy 65 18.5 26 -3.4 22 22 NNE 3 6 29.39 995 10 16 0.00 0.00
6:58 pm 18:58 Mostly Cloudy 64 18 22 -5.5 20 20 WNW 6 9 29.42 996 10 16 0.00 0.00
7:58 pm 19:58 Mostly Cloudy 62 16.4 25 -3.9 25 25 Calm 29.42 996 10 16 0.00 0.00
8:58 pm 20:58 Mostly Cloudy 60 15.4 24 -4.3 26 26 Calm 29.43 997 10 16 0.00 0.00
9:58 pm 21:58 Cloudy 59 15 22 -5.8 23 23 S 7 11 29.43 997 10 16 0.00 0.00
10:58 pm 22:58 Mostly Cloudy 58 14.6 21 -6.2 23 23 E 6 9 29.39 995 10 16 0.00 0.00
11:35 pm 23:35 Mostly Cloudy 59 15 21 -6 23 23 W 15 24 29.56 1001 10 16 0.00 0.00
11:37 pm 23:37 Mostly Cloudy 59 15 21 -6 23 23 NW 13 20 29.56 1001 10 16 0.00 0.00
11:58 pm 23:58 Mostly Cloudy 58 14.6 22 -5.6 24 24 ESE 6 9 29.38 995 10 16 0.00 0.00

Powered by AerisWeather